Regional Weather Roundup
Issued by NWS

Home | Current Version | Previous Version | Graphics & Text | Print | Product List | Glossary On
Versions: 1 2 3 4 5 6 7 8 9 10 11 12 13 14 15 16 17 18 19 20 21 22 23 24 25 26 27
000
ASUS45 KBOU 251707
RWRCO

WEATHER ROUNDUP FOR COLORADO
NATIONAL WEATHER SERVICE DENVER/BOULDER CO
1000 AM MST SAT FEB 25 2017

NOTE: "FAIR" INDICATES FEW OR NO CLOUDS BELOW 12000 FEET WITH NO
SIGNIFICANT WEATHER AND/OR OBSTRUCTIONS TO VISIBILITY.

COZ001>005-013-030-031-251800-
...NORTHWEST COLORADO...

CITY           SKY/WX    TMP DP  RH WIND       PRES   REMARKS
CRAIG          CLOUDY    19   9  65 CALM      30.00F
HAYDEN         FAIR      16   7  67 E3        29.97F
MEEKER         FAIR      12   6  77 S3        30.01F
MOUNT WERNER   NOT AVBL
STEAMBOAT SPGS CLOUDY    11   5  78 CALM      29.96S
WALDEN         NOT AVBL
$$

COZ006>008-011-251800-
...WEST CENTRAL VALLEYS...

CITY           SKY/WX    TMP DP  RH WIND       PRES   REMARKS
GRAND JUNCTION FAIR      26  14  60 SE6       30.08F WCI  19
MONTROSE       FAIR      27   9  46 CALM      30.09F
EAGLE          MOSUNNY   19  10  68 CALM      30.01F
RIFLE          FAIR      18  12  77 CALM      30.07F
DELTA          FAIR      29  11  47 E3        30.10F
NUCLA          FAIR      30   3  31 CALM      30.10F
$$

COZ017>023-064>068-251800-
...SOUTHWEST COLORADO...

CITY           SKY/WX    TMP DP  RH WIND       PRES   REMARKS
DURANGO        FAIR      25   9  50 CALM      30.04F
CORTEZ         FAIR      29  10  45 CALM      30.07F
PAGOSA SPRINGS FAIR      22   7  52 S5        30.02S WCI  16
TELLURIDE      FAIR      16  -1  47 E3        29.97F
WOLF CREEK PAS CLOUDY     1   0  92 S20G29    29.87S FOG     WCI -20
$$

COZ009-010-012-014-032>034-037-058>063-251800-
...CENTRAL COLORADO...

CITY           SKY/WX    TMP DP  RH WIND       PRES   REMARKS
ASPEN          FAIR      15   0  51 CALM      29.92F
BUENA VISTA    FAIR      22  -9  25 W18G29    29.89F WCI   8
COPPER MTN     CLOUDY     1  -6  71 MISG      29.74S
BERTHOUD PASS  CLOUDY    -8 -17  65 MISG      29.65F HAZE
COTTONWOOD PAS CLOUDY    16  -8  35 W16G28    29.80F WCI   0
GUNNISON       FAIR       6  -2  69 E3        30.02F
KREMMLING      LGT SNOW  21  10  63 SW5       29.94F WCI  15
LEADVILLE      FAIR       8 -13  37 W8        29.81F WCI  -4
MONARCH PASS   CLOUDY     0  -6  78 W37G47    29.87S WCI -28
SALIDA         FAIR      25  -4  28 W16G29    30.00S WCI  13
SUNLIGHT       NOT AVBL
WILKERSON PASS FAIR       7  -9  47 SW16G31   29.73F WCI -11
$$

COZ069>075-251800-
...SAN LUIS VALLEY/SANGRE DE CRISTO MOUNTAINS...

CITY           SKY/WX    TMP DP  RH WIND       PRES   REMARKS
ALAMOSA        FAIR      22   6  50 VRB3      29.97F
LA VETA PASS   FAIR      14   1  57 S24G36    29.82S WCI  -5
SAGUACHE       FAIR      23   0  36 NW15      29.96F WCI  10
$$

COZ035-036-038>040-251800-
...NORTHERN COLORADO FRONT RANGE...

CITY           SKY/WX    TMP DP  RH WIND       PRES   REMARKS
DENVER INTL AP PTSUNNY   28   4  35 S8        29.91F WCI  20
DMNS CITY PARK   N/A     30   2  30 SE6       29.90F WCI  24
AURORA         PTSUNNY   27   2  33 S8        29.90F WCI  19
FRONT RANGE AP NOT AVBL
ERIE MUNI ARPT FAIR      29  13  51 E8        29.90F WCI  21
BOULDER MUN AP FAIR      23  14  68 CALM      29.90F
CENTENNIAL     FAIR      28  -1  28 CALM      29.89F
BROOMFIELD     MOSUNNY   25   9  50 S7        29.90F WCI  17
FORT COLLINS   NOT AVBL
LONGMONT       FAIR      27  15  60 E6        29.93F WCI  20
$$

COZ041-046-047-076>085-087-088-251800-
...PIKES PEAK/PALMER DIVIDE AND SOUTHERN FOOTHILLS...

CITY           SKY/WX    TMP DP  RH WIND       PRES   REMARKS
COLO. SPRINGS  FAIR      27   7  42 CALM      29.91F
A. F. ACADEMY  FAIR      28  -4  25 NW16G23   29.87F WCI  15
SCHRIEVER AFB  FAIR      28   2  32 W6        29.91F WCI  21
ELLICOTT       NOT AVBL
FALCON         FAIR      24   6  45 SE3       29.89F
FORT CARSON    FAIR      27  10  50 SE9       29.91F WCI  17
LIMON          FAIR      30   4  33 NW9       29.93F WCI  22
MONUMENT HILL  FAIR      23   0  36 CALM      29.88F
TRINIDAD       FAIR      32   3  29 SE8       29.95F WCI  25
$$

COZ042>045-048>051-090-091-251800-
...NORTHEAST COLORADO...

CITY           SKY/WX    TMP DP  RH WIND       PRES   REMARKS
GREELEY ARPT   FAIR      26  19  74 E3        29.95F
AKRON          FAIR      26  19  74 W10       29.94F WCI  16
BURLINGTON     FAIR      34  17  50 W14       29.98F WCI  25
WRAY           NOT AVBL
STERLING       FAIR      27  18  69 NW5       29.96F WCI  21
HOLYOKE        FAIR      32  19  59 W12G18    29.96F WCI  23
FORT MORGAN    FAIR      24  19  81 CALM      29.96F
$$

COZ086-089-092>099-251800-
...SOUTHEAST COLORADO...

CITY           SKY/WX    TMP DP  RH WIND       PRES   REMARKS
PUEBLO         FAIR      36   1  22 W9        29.96F
LA JUNTA       FAIR      32  18  56 W9        29.99F WCI  24
LAMAR          FAIR      33  16  49 NW8       30.01F WCI  26
SPRINGFIELD      N/A     36  13  38 SW13G18   30.00F
$$




USA.gov is the U.S. government's official web portal to all federal, state and local government web resources and services.